Time,TemperatureF,DewpointF,PressureIn,WindDirection,WindDirectionDegrees,WindSpeedMPH,WindSpeedGustMPH,Humidity,HourlyPrecipIn,Conditions,Clouds,dailyrainin,SoftwareType,DateUTC
2013-06-04 00:00:00,67.0,64.0,-100.00,South,188,0.0,4.0,92,-99.99,,,-99.99,,2013-06-04 04:00:00,
2013-06-04 00:23:00,67.0,64.0,-100.00,South,188,0.0,4.0,92,-99.99,,,-99.99,,2013-06-04 04:23:00,
2013-06-04 00:33:00,67.0,64.0,-100.00,South,188,0.0,4.0,92,-99.99,,,-99.99,,2013-06-04 04:33:00,
2013-06-04 00:42:00,67.0,64.0,-100.00,South,188,0.0,4.0,92,-99.99,,,-99.99,,2013-06-04 04:42:00,
2013-06-04 00:53:00,67.0,64.0,-100.00,South,188,0.0,4.0,92,-99.99,,,-99.99,,2013-06-04 04:53:00,
2013-06-04 01:00:00,67.0,64.0,-100.00,WNW,293,3.0,5.0,89,-99.99,,,-99.99,,2013-06-04 05:00:00,
2013-06-04 01:22:00,67.0,64.0,-100.00,WNW,293,3.0,5.0,89,-99.99,,,-99.99,,2013-06-04 05:22:00,
2013-06-04 01:32:00,67.0,64.0,-100.00,WNW,293,3.0,5.0,89,-99.99,,,-99.99,,2013-06-04 05:32:00,
2013-06-04 01:42:00,67.0,64.0,-100.00,WNW,293,3.0,5.0,89,-99.99,,,-99.99,,2013-06-04 05:42:00,
2013-06-04 01:52:00,67.0,64.0,-100.00,WNW,293,3.0,5.0,89,-99.99,,,-99.99,,2013-06-04 05:52:00,
2013-06-04 02:00:00,66.0,60.0,-100.00,North,0,4.0,11.0,81,-99.99,,,-99.99,,2013-06-04 06:00:00,
2013-06-04 02:22:00,66.0,60.0,-100.00,North,0,4.0,11.0,81,-99.99,,,-99.99,,2013-06-04 06:22:00,
2013-06-04 02:32:00,66.0,60.0,-100.00,North,0,4.0,11.0,81,-99.99,,,-99.99,,2013-06-04 06:32:00,
2013-06-04 02:42:00,66.0,60.0,-100.00,North,0,4.0,11.0,81,-99.99,,,-99.99,,2013-06-04 06:42:00,
2013-06-04 02:52:00,66.0,60.0,-100.00,North,0,4.0,11.0,81,-99.99,,,-99.99,,2013-06-04 06:52:00,
2013-06-04 03:00:00,64.0,57.0,-100.00,NNE,15,2.0,10.0,80,-99.99,,,-99.99,,2013-06-04 07:00:00,
2013-06-04 03:22:00,64.0,57.0,-100.00,NNE,15,2.0,10.0,80,-99.99,,,-99.99,,2013-06-04 07:22:00,
2013-06-04 03:32:00,64.0,57.0,-100.00,NNE,15,2.0,10.0,80,-99.99,,,-99.99,,2013-06-04 07:32:00,
2013-06-04 03:42:00,64.0,57.0,-100.00,NNE,15,2.0,10.0,80,-99.99,,,-99.99,,2013-06-04 07:42:00,
2013-06-04 03:52:00,64.0,57.0,-100.00,NNE,15,2.0,10.0,80,-99.99,,,-99.99,,2013-06-04 07:52:00,
2013-06-04 05:00:00,59.0,47.0,-100.00,NE,35,3.0,9.0,65,-99.99,,,-99.99,,2013-06-04 09:00:00,
2013-06-04 05:22:00,59.0,47.0,-100.00,NE,35,3.0,9.0,65,-99.99,,,-99.99,,2013-06-04 09:22:00,
2013-06-04 05:33:00,59.0,47.0,-100.00,NE,35,3.0,9.0,65,-99.99,,,-99.99,,2013-06-04 09:33:00,
2013-06-04 05:43:00,59.0,47.0,-100.00,NE,35,3.0,9.0,65,-99.99,,,-99.99,,2013-06-04 09:43:00,
2013-06-04 05:53:00,59.0,47.0,-100.00,NE,35,3.0,9.0,65,-99.99,,,-99.99,,2013-06-04 09:53:00,
2013-06-04 06:00:00,57.0,47.0,-100.00,North,4,3.0,8.0,68,-99.99,,,-99.99,,2013-06-04 10:00:00,
2013-06-04 06:33:00,57.0,47.0,-100.00,North,4,3.0,8.0,68,-99.99,,,-99.99,,2013-06-04 10:33:00,
2013-06-04 06:42:00,57.0,47.0,-100.00,North,4,3.0,8.0,68,-99.99,,,-99.99,,2013-06-04 10:42:00,
2013-06-04 06:53:00,57.0,47.0,-100.00,North,4,3.0,8.0,68,-99.99,,,-99.99,,2013-06-04 10:53:00,
2013-06-04 07:00:00,60.0,47.0,-100.00,NNW,342,4.0,9.0,63,-99.99,,,-99.99,,2013-06-04 11:00:00,
2013-06-04 07:22:00,60.0,47.0,-100.00,NNW,342,4.0,9.0,63,-99.99,,,-99.99,,2013-06-04 11:22:00,
2013-06-04 07:32:00,60.0,47.0,-100.00,NNW,342,4.0,9.0,63,-99.99,,,-99.99,,2013-06-04 11:32:00,
2013-06-04 07:43:00,60.0,47.0,-100.00,NNW,342,4.0,9.0,63,-99.99,,,-99.99,,2013-06-04 11:43:00,
2013-06-04 07:52:00,60.0,47.0,-100.00,NNW,342,4.0,9.0,63,-99.99,,,-99.99,,2013-06-04 11:52:00,
2013-06-04 08:00:00,60.0,45.0,-100.00,NE,48,5.0,13.0,57,-99.99,,,-99.99,,2013-06-04 12:00:00,
2013-06-04 08:22:00,60.0,45.0,-100.00,NE,48,5.0,13.0,57,-99.99,,,-99.99,,2013-06-04 12:22:00,
2013-06-04 08:32:00,60.0,45.0,-100.00,NE,48,5.0,13.0,57,-99.99,,,-99.99,,2013-06-04 12:32:00,
2013-06-04 08:42:00,60.0,45.0,-100.00,NE,48,5.0,13.0,57,-99.99,,,-99.99,,2013-06-04 12:42:00,
2013-06-04 08:53:00,60.0,45.0,-100.00,NE,48,5.0,13.0,57,-99.99,,,-99.99,,2013-06-04 12:53:00,
2013-06-04 09:00:00,63.0,44.0,-100.00,NE,34,9.0,15.0,50,-99.99,,,-99.99,,2013-06-04 13:00:00,
2013-06-04 09:22:00,63.0,44.0,-100.00,NE,34,9.0,15.0,50,-99.99,,,-99.99,,2013-06-04 13:22:00,
2013-06-04 09:32:00,63.0,44.0,-100.00,NE,34,9.0,15.0,50,-99.99,,,-99.99,,2013-06-04 13:32:00,
2013-06-04 09:42:00,63.0,44.0,-100.00,NE,34,9.0,15.0,50,-99.99,,,-99.99,,2013-06-04 13:42:00,
2013-06-04 09:52:00,63.0,44.0,-100.00,NE,34,9.0,15.0,50,-99.99,,,-99.99,,2013-06-04 13:52:00,
2013-06-04 10:00:00,65.0,45.0,-100.00,NNW,338,5.0,16.0,48,-99.99,,,-99.99,,2013-06-04 14:00:00,
2013-06-04 10:22:00,65.0,45.0,-100.00,NNW,338,5.0,16.0,48,-99.99,,,-99.99,,2013-06-04 14:22:00,
2013-06-04 10:32:00,65.0,45.0,-100.00,NNW,338,5.0,16.0,48,-99.99,,,-99.99,,2013-06-04 14:32:00,
2013-06-04 10:43:00,65.0,45.0,-100.00,NNW,338,5.0,16.0,48,-99.99,,,-99.99,,2013-06-04 14:43:00,
2013-06-04 10:52:00,65.0,45.0,-100.00,NNW,338,5.0,16.0,48,-99.99,,,-99.99,,2013-06-04 14:52:00,
2013-06-04 11:00:00,67.0,44.0,-100.00,NW,321,7.0,12.0,44,-99.99,,,-99.99,,2013-06-04 15:00:00,
2013-06-04 11:33:00,67.0,44.0,-100.00,NW,321,7.0,12.0,44,-99.99,,,-99.99,,2013-06-04 15:33:00,
2013-06-04 11:42:00,67.0,44.0,-100.00,NW,321,7.0,12.0,44,-99.99,,,-99.99,,2013-06-04 15:42:00,
2013-06-04 11:53:00,67.0,44.0,-100.00,NW,321,7.0,12.0,44,-99.99,,,-99.99,,2013-06-04 15:53:00,
2013-06-04 12:00:00,69.0,42.0,-100.00,NNW,340,3.0,12.0,38,-99.99,,,-99.99,,2013-06-04 16:00:00,
2013-06-04 12:33:00,69.0,42.0,-100.00,NNW,340,3.0,12.0,38,-99.99,,,-99.99,,2013-06-04 16:33:00,
2013-06-04 12:42:00,69.0,42.0,-100.00,NNW,340,3.0,12.0,38,-99.99,,,-99.99,,2013-06-04 16:42:00,
2013-06-04 12:53:00,69.0,42.0,-100.00,NNW,340,3.0,12.0,38,-99.99,,,-99.99,,2013-06-04 16:53:00,
2013-06-04 13:00:00,70.0,43.0,-100.00,NNW,332,8.0,11.0,37,-99.99,,,-99.99,,2013-06-04 17:00:00,
2013-06-04 13:33:00,70.0,43.0,-100.00,NNW,332,8.0,11.0,37,-99.99,,,-99.99,,2013-06-04 17:33:00,
2013-06-04 13:42:00,70.0,43.0,-100.00,NNW,332,8.0,11.0,37,-99.99,,,-99.99,,2013-06-04 17:42:00,
2013-06-04 13:52:00,70.0,43.0,-100.00,NNW,332,8.0,11.0,37,-99.99,,,-99.99,,2013-06-04 17:52:00,
2013-06-04 14:00:00,73.0,41.0,-100.00,NNW,340,4.0,14.0,32,-99.99,,,-99.99,,2013-06-04 18:00:00,
2013-06-04 14:32:00,73.0,41.0,-100.00,NNW,340,4.0,14.0,32,-99.99,,,-99.99,,2013-06-04 18:32:00,
2013-06-04 14:42:00,73.0,41.0,-100.00,NNW,340,4.0,14.0,32,-99.99,,,-99.99,,2013-06-04 18:42:00,
2013-06-04 14:53:00,73.0,41.0,-100.00,NNW,340,4.0,14.0,32,-99.99,,,-99.99,,2013-06-04 18:53:00,
2013-06-04 15:00:00,73.0,40.0,-100.00,NE,52,5.0,13.0,30,-99.99,,,-99.99,,2013-06-04 19:00:00,
2013-06-04 15:33:00,73.0,40.0,-100.00,NE,52,5.0,13.0,30,-99.99,,,-99.99,,2013-06-04 19:33:00,
2013-06-04 15:42:00,73.0,40.0,-100.00,NE,52,5.0,13.0,30,-99.99,,,-99.99,,2013-06-04 19:42:00,
2013-06-04 15:52:00,73.0,40.0,-100.00,NE,52,5.0,13.0,30,-99.99,,,-99.99,,2013-06-04 19:52:00,
2013-06-04 16:00:00,74.0,39.0,-100.00,North,355,2.0,12.0,28,-99.99,,,-99.99,,2013-06-04 20:00:00,
2013-06-04 16:32:00,74.0,39.0,-100.00,North,355,2.0,12.0,28,-99.99,,,-99.99,,2013-06-04 20:32:00,
2013-06-04 16:42:00,74.0,39.0,-100.00,North,355,2.0,12.0,28,-99.99,,,-99.99,,2013-06-04 20:42:00,
2013-06-04 16:53:00,74.0,39.0,-100.00,North,355,2.0,12.0,28,-99.99,,,-99.99,,2013-06-04 20:53:00,
2013-06-04 17:00:00,74.0,41.0,-100.00,WNW,303,6.0,12.0,31,-99.99,,,-99.99,,2013-06-04 21:00:00,
2013-06-04 17:22:00,74.0,41.0,-100.00,WNW,303,6.0,12.0,31,-99.99,,,-99.99,,2013-06-04 21:22:00,
2013-06-04 17:33:00,74.0,41.0,-100.00,WNW,303,6.0,12.0,31,-99.99,,,-99.99,,2013-06-04 21:33:00,
2013-06-04 17:42:00,74.0,41.0,-100.00,WNW,303,6.0,12.0,31,-99.99,,,-99.99,,2013-06-04 21:42:00,
2013-06-04 17:53:00,74.0,41.0,-100.00,WNW,303,6.0,12.0,31,-99.99,,,-99.99,,2013-06-04 21:53:00,
2013-06-04 18:00:00,74.0,43.0,-100.00,West,274,4.0,12.0,34,-99.99,,,-99.99,,2013-06-04 22:00:00,
2013-06-04 18:22:00,74.0,43.0,-100.00,West,274,4.0,12.0,34,-99.99,,,-99.99,,2013-06-04 22:22:00,
2013-06-04 18:33:00,74.0,43.0,-100.00,West,274,4.0,12.0,34,-99.99,,,-99.99,,2013-06-04 22:33:00,
2013-06-04 18:42:00,74.0,43.0,-100.00,West,274,4.0,12.0,34,-99.99,,,-99.99,,2013-06-04 22:42:00,
2013-06-04 18:52:00,74.0,43.0,-100.00,West,274,4.0,12.0,34,-99.99,,,-99.99,,2013-06-04 22:52:00,
2013-06-04 19:00:00,73.0,41.0,-100.00,WNW,302,8.0,12.0,32,-99.99,,,-99.99,,2013-06-04 23:00:00,
2013-06-04 19:22:00,73.0,41.0,-100.00,WNW,302,8.0,12.0,32,-99.99,,,-99.99,,2013-06-04 23:22:00,
2013-06-04 19:32:00,73.0,41.0,-100.00,WNW,302,8.0,12.0,32,-99.99,,,-99.99,,2013-06-04 23:32:00,
2013-06-04 19:42:00,73.0,41.0,-100.00,WNW,302,8.0,12.0,32,-99.99,,,-99.99,,2013-06-04 23:42:00,
2013-06-04 19:52:00,73.0,41.0,-100.00,WNW,302,8.0,12.0,32,-99.99,,,-99.99,,2013-06-04 23:52:00,
2013-06-04 20:00:00,70.0,45.0,-100.00,WNW,299,3.0,10.0,40,-99.99,,,-99.99,,2013-06-05 00:00:00,
2013-06-04 20:22:00,70.0,45.0,-100.00,WNW,299,3.0,10.0,40,-99.99,,,-99.99,,2013-06-05 00:22:00,
2013-06-04 20:33:00,70.0,45.0,-100.00,WNW,299,3.0,10.0,40,-99.99,,,-99.99,,2013-06-05 00:33:00,
2013-06-04 20:42:00,70.0,45.0,-100.00,WNW,299,3.0,10.0,40,-99.99,,,-99.99,,2013-06-05 00:42:00,
2013-06-04 20:52:00,70.0,45.0,-100.00,WNW,299,3.0,10.0,40,-99.99,,,-99.99,,2013-06-05 00:52:00,
2013-06-04 21:00:00,65.0,48.0,-100.00,SW,216,2.0,5.0,55,-99.99,,,-99.99,,2013-06-05 01:00:00,
2013-06-04 21:22:00,65.0,48.0,-100.00,SW,216,2.0,5.0,55,-99.99,,,-99.99,,2013-06-05 01:22:00,
2013-06-04 21:32:00,65.0,48.0,-100.00,SW,216,2.0,5.0,55,-99.99,,,-99.99,,2013-06-05 01:32:00,
2013-06-04 21:42:00,65.0,48.0,-100.00,SW,216,2.0,5.0,55,-99.99,,,-99.99,,2013-06-05 01:42:00,
2013-06-04 21:52:00,65.0,48.0,-100.00,SW,216,2.0,5.0,55,-99.99,,,-99.99,,2013-06-05 01:52:00,
2013-06-04 22:00:00,62.0,50.0,-100.00,SSW,207,0.0,4.0,64,-99.99,,,-99.99,,2013-06-05 02:00:00,
2013-06-04 22:22:00,62.0,50.0,-100.00,SSW,207,0.0,4.0,64,-99.99,,,-99.99,,2013-06-05 02:22:00,
2013-06-04 22:32:00,62.0,50.0,-100.00,SSW,207,0.0,4.0,64,-99.99,,,-99.99,,2013-06-05 02:32:00,
2013-06-04 22:42:00,62.0,50.0,-100.00,SSW,207,0.0,4.0,64,-99.99,,,-99.99,,2013-06-05 02:42:00,
2013-06-04 22:52:00,62.0,50.0,-100.00,SSW,207,0.0,4.0,64,-99.99,,,-99.99,,2013-06-05 02:52:00,
2013-06-04 23:00:00,59.0,50.0,-100.00,SW,232,0.0,5.0,72,-99.99,,,-99.99,,2013-06-05 03:00:00,
2013-06-04 23:33:00,59.0,50.0,-100.00,SW,232,0.0,5.0,72,-99.99,,,-99.99,,2013-06-05 03:33:00,
2013-06-04 23:43:00,59.0,50.0,-100.00,SW,232,0.0,5.0,72,-99.99,,,-99.99,,2013-06-05 03:43:00,
2013-06-04 23:53:00,59.0,50.0,-100.00,SW,232,0.0,5.0,72,-99.99,,,-99.99,,2013-06-05 03:53:00,